Regional Weather Roundup
Issued by NWS

Home | Current Version | Previous Version | Graphics & Text | Print | Product List | Glossary On
Versions: 1 2 3 4 5 6 7 8 9 10 11 12 13 14 15 16 17 18 19 20 21 22 23 24 25 26 27 28 29 30 31 32 33 34 35 36 37 38 39 40 41 42 43 44 45 46 47 48 49 50
237
ASUS43 KDTX 280801
RWRMI
MICHIGAN HOURLY REGIONAL WEATHER ROUNDUP
NATIONAL WEATHER SERVICE DETROIT/PONTIAC MI
400 AM EDT FRI APR 28 2017

NOTE: "FAIR" INDICATES FEW OR NO CLOUDS BELOW 12,000 FEET WITH NO
SIGNIFICANT WEATHER AND/OR OBSTRUCTION TO VISIBILITY.

MIZ047>049-052>055-059>063-066>070-074>076-081>083-280900-
SOUTHEAST LOWER MICHIGAN

CITY           SKY/WX    TMP DP  RH WIND       PRES   REMARKS
ADRIAN         PTCLDY    47  37  68 W7        29.91R
ALMA           CLOUDY    44  35  70 SW14G21   29.86R
ANN ARBOR      PTCLDY    46  38  73 SW7       29.89R
BAD AXE        CLOUDY    46  37  70 W10G17    29.85R
CARO           CLOUDY    46  37  69 W10G18    29.84S
DETROIT CITY   PTCLDY    50  37  61 W12G22    29.90R
DETROIT        MOCLDY    49  37  63 W12       29.90R
FLINT          CLOUDY    48  36  63 SW18G24   29.88R
GROSSE ILE     PTCLDY    48  38  67 W7        29.90R
HILLSDALE      CLEAR     43  36  75 SW5       29.89S
HOWELL         CLOUDY    47  35  64 W14G22    29.88R

CITY           SKY/WX    TMP DP  RH WIND       PRES   REMARKS
JACKSON        CLEAR     44  37  76 W6        29.89R
LAMBERTVILLE   PTCLDY    47  39  72 W6        29.92R
LANSING        CLOUDY    46  33  60 W16G28    29.88R
LAPEER         CLOUDY    49  38  66 W9G16     29.86R
MASON          CLOUDY    45  36  69 W7        29.89R
MONROE         CLEAR     47  38  68 W7        29.90R
MT. CLEMENS    MOCLDY    49  38  65 SW9       29.87R
PONTIAC        CLOUDY    48  37  65 W12       29.87R
PORT HOPE        N/A     47  37  68 W9G20     29.82R
PORT HURON     CLOUDY    50  36  57 SW6       29.88R
TRI CITIES     CLOUDY    45  36  70 SW17G29   29.85R
MIDLAND        CLOUDY    45  33  63 W17G25    29.83S
TROY           CLOUDY    50  35  55 SW5       29.90R
SAGINAW HB     CLOUDY    45  34  65 SW17      29.84S
$$
MIZ043>046-050>051-056>058-064>065-071>073-077>080-280900-
SOUTHWEST LOWER MICHIGAN

CITY           SKY/WX    TMP DP  RH WIND       PRES   REMARKS
BATTLE CREEK   MOCLDY    44  36  73 W9        29.90R
BENTON HARBOR  CLOUDY    44  37  76 SW6       29.89R
BIG RAPIDS     CLOUDY    40  32  72 W12G17    29.81R WCI  33
COLDWATER      CLEAR     43  37  79 CALM      29.90R
FREMONT        CLOUDY    41  34  75 W9        29.83S
HOLLAND        CLOUDY    45  36  70 SW14      29.88R
GRAND RAPIDS   CLOUDY    45  36  70 W16G28    29.86R
IONIA          CLOUDY    45  34  65 W16G23    29.86R
KALAMAZOO      MOCLDY    41  34  76 SW3       29.90R
LUDINGTON      CLOUDY    40  35  80 SW15      29.81S WCI  32
MARSHALL       CLEAR     40  36  86 W3        29.89S
MOUNT PLEASANT CLOUDY    43  34  71 SW14G21   29.83R
MUSKEGON       CLOUDY    43  38  82 SW15      29.85R
SOUTH HAVEN    CLOUDY    45  36  72 W9        29.89S
$$
MIZ016>042-280900-
NORTHERN LOWER MICHIGAN

CITY           SKY/WX    TMP DP  RH WIND       PRES   REMARKS
ALPENA         CLOUDY    44  38  79 SW10      29.77R
BEAVER ISLAND  CLOUDY    37  32  82 W16G23    29.74R WCI  27
BELLAIRE       MIX PCPN  40  36  87 SW7       29.77R WCI  35
CADILLAC       CLOUDY    39  32  75 SW13G20   29.76F WCI  32
CHARLEVOIX     DRIZZLE   37  37 100 W9        29.79R WCI  31
FRANKFORT      LGT RAIN  39  36  89 SW12G17   29.79R WCI  31
GAYLORD        CLOUDY    40  34  79 W13       29.74R WCI  32
GRAYLING       CLOUDY    39  36  87 SW7       29.77R WCI  34
HARBOR SPRINGS LGT RAIN  36  36 100 W8G16     29.75R WCI  30
HOUGHTON LAKE  CLOUDY    41  34  76 SW15G24   29.78S
MANISTEE       CLOUDY    41  34  76 SW13G21   29.80R
OSCODA         CLOUDY    45  34  66 SW18G24   29.79R
PELLSTON       LGT RAIN  37  34  89 W12       29.75R FOG     WCI  29
ROGERS CITY    CLOUDY    42  36  80 SW6       29.76R
TRAVERSE CITY  CLOUDY    42  36  79 W10G21    29.76R
$$
MIZ007>008-015-280900-
EASTERN UPPER MICHIGAN

CITY           SKY/WX    TMP DP  RH WIND       PRES   REMARKS
KINROSS        CLOUDY    37  32  82 SW6       29.71R WCI  32
MACKINAC ISLAN CLOUDY    38  34  85 SW15G26   29.73R WCI  29
NEWBERRY       CLOUDY    33  31  92 W8        29.70R WCI  26
S. S. MARIE    CLOUDY    37  33  85 SW5       29.71R WCI  33
MUNISING         N/A     32  29  88 VRB6      29.71R WCI  26
$$
MIZ004>006-011>014-085-280900-
CENTRAL UPPER MICHIGAN

CITY           SKY/WX    TMP DP  RH WIND       PRES   REMARKS
MANISTIQUE     LGT SNOW  32  31  98 SW6       29.73R WCI  26
ESCANABA       CLOUDY    32  30  92 SW10      29.74R WCI  24
MENOMINEE      CLOUDY    35  29  78 W8G16     29.76R WCI  29
SAWYER-GWINN   CLOUDY    29  24  82 W15G21    29.69R WCI  18
$$
MIZ001>003-009>011-084-280900-
WESTERN UPPER MICHIGAN

CITY           SKY/WX    TMP DP  RH WIND       PRES   REMARKS
IRON MOUNTAIN  CLOUDY    30  23  75 W8        29.69S WCI  22
HOUGHTON       FLURRIES  30  24  78 SW13      29.61S WCI  20
COPPER HARBOR    N/A     30  27  88 VRB6      29.62R WCI  24
IRONWOOD       CLOUDY    27  25  92 W13       29.68S WCI  16
$$

ABBREVIATIONS USED IN REMARKS
   TC - TEMPERATURE IN CELSIUS
  WCI - WIND CHILL INDEX
   HX - HEAT INDEX
  VSB - VISIBILITY





USA.gov is the U.S. government's official web portal to all federal, state and local government web resources and services.